Miscellaneous Local Product
Issued by NWS Hastings, NE

Home | Current Version | Previous Version | Graphics & Text | Print | Product List | Glossary On
Versions: 1 2 3 4 5 6 7 8 9 10 11 12 13 14 15 16 17 18 19 20 21 22 23 24 25 26 27 28 29 30 31 32 33 34 35 36 37 38 39 40 41 42 43 44 45 46 47 48 49 50
911
AXUS43 KGID 231402
MISGRI

GID CWA HOURLY WEATHER ROUNDUP
NATIONAL WEATHER SERVICE HASTINGS NE
900 AM CDT FRI JUN 23 2017

NOTE: "FAIR" INDICATES FEW OR NO CLOUDS BELOW 12,000 FEET WITH NO
SIGNIFICANT WEATHER AND/OR OBSTRUCTIONS TO VISIBILITY.

...SOUTH CENTRAL NEBRASKA...

CITY           SKY/WX    TMP DP  RH WIND       PRES   REMARKS
GRAND ISLAND   PTSUNNY   65  44  46 N22G30    30.07R
HASTINGS       CLOUDY    64  41  42 N18G26    30.08R
KEARNEY        CLOUDY    64  39  39 N24G36    30.09R
ORD            CLOUDY    60  43  53 NW23G29   30.10R
YORK           CLOUDY    64  45  48 N7        30.04R
AURORA         PTSUNNY   64  42  45 N21G28    30.05R
LEXINGTON      CLOUDY    61  43  50 N22G30    30.13R
HOLDREGE       CLOUDY    62  43  50 N20G25    30.10R
HEBRON         CLOUDY    66  52  61 N13       30.00R

...NEBRASKA PANHANDLE...

CITY           SKY/WX    TMP DP  RH WIND       PRES   REMARKS
CHADRON        SUNNY     56  42  59 NW16G24   30.22S
ALLIANCE       CLOUDY    54  44  69 NW9       30.21F
SCOTTSBLUFF    CLOUDY    56  39  53 NW10      30.25S
SIDNEY         CLOUDY    53  40  61 N13G22    30.26R

...WESTERN AND NORTH CENTRAL NEBRASKA...

CITY           SKY/WX    TMP DP  RH WIND       PRES   REMARKS
VALENTINE      CLOUDY    62  41  46 NW23G30   30.15F
AINSWORTH      LGT RAIN  53  49  89 NW7       30.15F
ONEILL         CLOUDY    58  47  67 NW17G26   30.12R
BROKEN BOW     CLOUDY    59  43  55 N35G44    30.13R
IMPERIAL       CLOUDY    58  43  57 N23G36    30.21R
NORTH PLATTE   CLOUDY    60  42  51 N18G31    30.18R
MCCOOK         CLOUDY    61  44  53 N22G28    30.15R

...EASTERN NEBRASKA...

CITY           SKY/WX    TMP DP  RH WIND       PRES   REMARKS
NORFOLK        CLOUDY    62  45  53 NW24G33   30.00R
SO SIOUX CITY  CLOUDY    61  49  64 NW16G25   29.97R
TEKAMAH        CLOUDY    65  45  48 N17G26    29.96R
COLUMBUS       CLOUDY    63  46  54 N17G25    30.02R
ALBION         CLOUDY    62  44  50 NW32G40   30.02R
OMAHA EPPLEY   CLOUDY    67  49  52 NW16      29.95R
MILLARD        CLOUDY    69  51  52 NW13      29.97R
LINCOLN        CLOUDY    67  50  54 NW8       30.01R
NEBRASKA CITY  CLOUDY    65  59  81 N10       29.94R
BEATRICE       CLOUDY    66  54  66 N12       29.99R
FALLS CITY     SUNNY     70  57  63 N14       29.90R

...NORTHERN KANSAS...

CITY           SKY/WX    TMP DP  RH WIND       PRES   REMARKS
GOODLAND       CLOUDY    57  50  77 N20G28    30.20S
HILL CITY      CLOUDY    62  55  77 N13       30.13R
NORTON         SUNNY     59  45  58 N15G21    30.13R
PHILLIPSBURG   SUNNY     64  48  55 N9G25     30.10R
SMITH CENTER   SUNNY     61  52  72 NW8       30.07R
HAYS           TSTM      59  54  83 N22       30.07R
RUSSELL        CLOUDY    66  52  60 N25G37    30.02R
CONCORDIA      CLOUDY    69  52  54 N16G22    29.96F
SALINA         SUNNY     77  56  48 NE16G22   29.94R
TOPEKA         MOSUNNY   75  66  73 N9        29.88R



USA.gov is the U.S. government's official web portal to all federal, state and local government web resources and services.